Location: ????????
(54.9045°N, 39.1041°E)
Time: 01:49:33
(UTC+00:00)

Cosmos 2369 Rocket - Pass Details

Date: 14 April 2024
Orbit: 830 x 850 km, 71.0° (Epoch: 25 May)

Event Time Altitude Azimuth Distance (km) Brightness Sun altitude
Rises 01:30:00 0° 326° (NW) 3,400 5.3 -7.7°
Reaches altitude 10° 01:32:28 10° 328° (NNW) 2,459 4.6 -7.4°
Maximum altitude 01:38:07 80° 55° (NE) 854 2.4 -6.7°
Drops below altitude 10° 01:43:43 10° 143° (SE) 2,435 4.8 -6.0°
Sets 01:46:08 0° 145° (SE) 3,364 5.5 -5.7°
